Weather History for Annette Island, AK

Change the Weather History Date:

Wednesday, February 27, 2013

  Actual Average Record
Temperature  
Mean Temperature 40 °F 38 °F  
Max Temperature 44 °F 43 °F 62 °F (1992)
Min Temperature 36 °F 33 °F 11 °F (1972)
Degree Days  
Heating Degree Days 25 27  
Month to date heating degree days 679 732  
Since 1 July heating degree days 4502 4511  
Cooling Degree Days 0    
Month to date cooling degree days 0  
Year to date cooling degree days 0  
Moisture  
Dew Point 36 °F    
Average Humidity 0    
Maximum Humidity 0    
Minimum Humidity 0    
Precipitation  
Precipitation 0.57 in 0.24 in 2.55 in (1993)
Month to date precipitation 12.78 7.07  
Year to date precipitation 20.98 17.80  
Snow  
Snow T in 0.20 in 4.80 in (2011)
Month to date snowfall T 6.9  
Since 1 July snowfall 11.9 26.2  
Snow Depth 0.00 in    
Sea Level Pressure  
Sea Level Pressure 29.80 in    
Wind  
Wind Speed 14 mph (SSE)    
Max Wind Speed 30 mph    
Max Gust Speed 45 mph    
Visibility 8 miles    
Events Rain , Snow    
T = Trace of Precipitation, MM = Missing Value Source: NWS Daily Summary

Daily Weather History Graph

Daily Weather History Graph

Search for Another Location

Airport:

Trip Planner

Search our weather history database for the weather conditions in past years. The results will help you decide how hot, cold, wet, or windy it might be!

Date:

Astronomy

Feb. 27, 2013 Rise Set
Actual Time 6:40 AM AKST 5:18 PM AKST
Civil Twilight 6:03 AM AKST 5:55 PM AKST
Nautical Twilight 5:21 AM AKST 6:37 PM AKST
Astronomical Twilight 4:39 AM AKST 7:19 PM AKST
Moon 8:22 PM AKST (2/27) 6:51 AM AKST (2/27)
Length of Visible Light 11h 51m
Length of Day
10h 38m
Waning Gibbous, 95% of the Moon is Illuminated
Feb 27
Waning Gibbous
Mar 4
Last Quarter
Mar 11
New
Mar 19
First Quarter
Mar 27
Full

Hourly Weather History & Observations

Time (AKST) Temp. Windchill Dew Point Humidity Pressure Visibility Wind Dir Wind Speed Gust Speed Precip Events Conditions
12:18 AM 39.2 °F 32.5 °F 35.6 °F 87% 29.82 in 8.0 mi South 10.4 mph 24.2 mph 0.01 in Rain Light Rain
12:39 AM 41.0 °F 34.3 °F 35.6 °F 81% 29.83 in 10.0 mi SSE 11.5 mph 20.7 mph 0.01 in   Overcast
12:53 AM 42.1 °F 35.2 °F 34.0 °F 73% 29.84 in 10.0 mi SSE 12.7 mph 28.8 mph 0.01 in   Overcast
1:12 AM 41.0 °F 33.9 °F 35.6 °F 81% 29.84 in 10.0 mi SSE 12.7 mph 21.9 mph 0.00 in Rain Light Rain
1:53 AM 41.0 °F 34.3 °F 35.1 °F 79% 29.85 in 10.0 mi SSE 11.5 mph 19.6 mph 0.02 in   Overcast
2:17 AM 42.8 °F 36.6 °F 35.6 °F 76% 29.84 in 10.0 mi South 11.5 mph 21.9 mph N/A   Overcast
2:53 AM 41.0 °F 35.2 °F 34.0 °F 76% 29.85 in 10.0 mi SSE 9.2 mph - 0.00 in   Overcast
3:53 AM 41.0 °F 34.3 °F 36.0 °F 82% 29.83 in 10.0 mi SSE 11.5 mph 20.7 mph 0.01 in   Overcast
4:53 AM 41.0 °F 32.2 °F 36.0 °F 82% 29.83 in 10.0 mi SE 18.4 mph 26.5 mph N/A   Overcast
5:53 AM 39.9 °F 31.8 °F 36.0 °F 86% 29.83 in 7.0 mi SE 15.0 mph 26.5 mph 0.00 in Rain Light Rain
6:08 AM 37.4 °F 28.5 °F 35.6 °F 93% 29.82 in 7.0 mi SE 15.0 mph 25.3 mph 0.01 in Rain Light Rain
6:53 AM 39.0 °F 29.6 °F 36.0 °F 89% 29.81 in 10.0 mi SE 18.4 mph 32.2 mph 0.02 in Rain Light Rain
7:53 AM 39.9 °F 29.0 °F 36.0 °F 86% 29.79 in 5.0 mi SE 26.5 mph 34.5 mph 0.00 in Rain Light Rain
8:53 AM 39.0 °F 29.0 °F 36.0 °F 89% 29.77 in 6.0 mi SE 20.7 mph 35.7 mph 0.01 in Rain Light Rain
9:53 AM 37.9 °F 26.8 °F 35.1 °F 89% 29.74 in 5.0 mi SE 24.2 mph 32.2 mph 0.08 in Rain Rain
10:38 AM 37.4 °F 25.6 °F 35.6 °F 93% 29.72 in 6.0 mi SE 26.5 mph 34.5 mph 0.06 in Rain Rain
10:53 AM 37.0 °F 26.7 °F 35.1 °F 93% 29.72 in 4.0 mi ESE 19.6 mph 39.1 mph 0.10 in Rain Rain
11:18 AM 35.6 °F 23.0 °F 33.8 °F 93% 29.71 in 1.8 mi SE 27.6 mph 38.0 mph 0.06 in Rain , Snow Rain
11:28 AM 35.6 °F 23.7 °F 33.8 °F 93% 29.71 in 3.0 mi ESE 24.2 mph 31.1 mph 0.09 in Rain , Snow Light Rain
11:53 AM 37.0 °F 25.9 °F 35.1 °F 93% 29.71 in 4.0 mi SE 23.0 mph 36.8 mph 0.13 in Rain Light Rain
12:53 PM 39.0 °F 28.3 °F 37.0 °F 93% 29.71 in 3.0 mi SE 24.2 mph 34.5 mph 0.10 in Rain Rain
1:53 PM 42.1 °F 33.6 °F 39.9 °F 92% 29.71 in 10.0 mi SSE 18.4 mph 33.4 mph 0.09 in   Overcast
2:29 PM 42.8 °F 36.2 °F 39.2 °F 87% 29.72 in 10.0 mi South 12.7 mph 24.2 mph 0.00 in   Overcast
2:53 PM 44.1 °F 38.6 °F 37.9 °F 79% 29.74 in 10.0 mi South 10.4 mph 20.7 mph 0.00 in   Overcast
3:28 PM 42.8 °F 35.8 °F 37.4 °F 81% 29.75 in 10.0 mi South 13.8 mph 24.2 mph 0.00 in Rain Light Rain
3:50 PM 42.8 °F 38.0 °F 35.6 °F 76% 29.76 in 10.0 mi South 8.1 mph 20.7 mph 0.00 in Rain Light Rain
3:53 PM 43.0 °F 38.2 °F 37.0 °F 80% 29.76 in 10.0 mi SSE 8.1 mph 20.7 mph 0.00 in   Overcast
4:02 PM 42.8 °F 37.5 °F 37.4 °F 81% 29.76 in 10.0 mi SSE 9.2 mph 17.3 mph 0.00 in Rain Light Rain
4:53 PM 42.1 °F 37.1 °F 36.0 °F 79% 29.79 in 10.0 mi South 8.1 mph 19.6 mph 0.00 in   Partly Cloudy
5:53 PM 42.1 °F 37.1 °F 36.0 °F 79% 29.81 in 10.0 mi SSW 8.1 mph - N/A   Mostly Cloudy
6:53 PM 42.1 °F 37.1 °F 37.0 °F 82% 29.85 in 10.0 mi South 8.1 mph - N/A   Mostly Cloudy
7:28 PM 42.8 °F 38.0 °F 37.4 °F 81% 29.85 in 6.0 mi SSW 8.1 mph - 0.01 in Rain Light Rain
7:46 PM 39.2 °F 35.0 °F 37.4 °F 93% 29.86 in 10.0 mi South 5.8 mph - 0.02 in Rain Light Rain
7:53 PM 39.9 °F 35.1 °F 37.0 °F 89% 29.88 in 10.0 mi South 6.9 mph - 0.02 in   Mostly Cloudy
8:53 PM 41.0 °F 36.4 °F 36.0 °F 82% 29.90 in 10.0 mi Variable 6.9 mph - N/A   Clear
9:53 PM 42.1 °F 37.7 °F 37.9 °F 85% 29.91 in 10.0 mi SSE 6.9 mph - N/A   Partly Cloudy
10:53 PM 43.0 °F 38.8 °F 37.9 °F 82% 29.93 in 10.0 mi SSE 6.9 mph - N/A   Overcast
11:53 PM 43.0 °F 37.2 °F 37.9 °F 82% 29.92 in 10.0 mi SE 10.4 mph - N/A   Overcast